DW7831 Weather Reports


time (UTC)temp
C
wind
direction
speed
KPH
gust
KPH
rain 1hr
cm
rain 24hr
cm
rain mn
cm
humidity
%
barometer
mb
20260906040040 15 22 0.0 0.0 0.00 0.00 0.00 100 1014.5
20260906034524 15 22 0.0 0.0 0.00 0.00 0.03 100 1014.4
20260906033020 15 22 0.0 0.0 0.00 0.00 0.03 100 1014.5
20260906031552 15 22 0.0 0.0 0.00 0.00 0.03 100 1014.3
20260906030014 15 22 0.0 0.0 0.00 0.00 0.03 100 1014.4
20260906024532 15 22 0.0 0.0 0.00 0.00 0.03 100 1014.2
20260906023004 15 22 0.0 0.0 0.00 0.00 0.03 100 1014.1
20260906021501 15 22 0.0 0.0 0.00 0.00 0.03 100 1014.1
20260906020055 15 22 0.0 0.0 0.00 0.00 0.03 100 1014.0
20260906014554 16 22 0.0 0.0 0.00 0.00 0.03 100 1014.0
20260906013050 16 22 0.0 0.0 0.00 0.00 0.03 100 1014.0
20260906011543 16 22 0.0 0.0 0.00 0.00 0.03 100 1013.9
20260906010048 16 22 0.0 0.0 0.00 0.00 0.03 100 1013.9
20260906004538 16 22 0.0 0.0 0.00 0.00 0.03 100 1013.8
20260906003032 16 22 1.6 0.0 0.00 0.00 0.03 100 1013.7
20260906001534 16 54 0.0 0.0 0.00 0.00 0.00 100 1013.7
20260906000026 16 63 0.0 0.0 0.00 0.00 0.00 100 1013.5
20260905234521 16 63 0.0 0.0 0.00 0.00 0.00 100 1013.4
20260905233017 16 63 0.0 0.0 0.00 0.00 0.00 100 1013.5
20260905231513 16 63 0.0 0.0 0.00 0.00 0.00 100 1013.5
20260905230017 17 63 0.0 0.0 0.00 0.00 0.00 5 1013.2
20260905224516 17 63 1.6 0.0 0.00 0.00 0.00 11 1013.3
20260905223101 17 60 1.6 0.0 0.00 0.00 0.00 24 1013.1
20260905221556 18 86 0.0 0.0 0.00 0.00 0.00 36 1012.7
20260905220054 18 98 1.6 0.0 0.00 0.00 0.00 48 1012.4
20260905214552 20 32 1.6 0.0 0.00 0.00 0.00 52 1012.3
20260905213048 21 313 0.0 0.0 0.00 0.00 0.00 51 1012.2
20260905211559 20 313 1.6 0.0 0.00 0.00 0.00 50 1012.1
20260905210051 20 313 1.6 0.0 0.00 0.00 0.00 50 1012.2
20260905204537 20 340 1.6 0.0 0.00 0.00 0.00 50 1012.1
20260905203029 20 338 1.6 0.0 0.00 0.00 0.00 50 1012.1
20260905201532 20 344 0.0 0.0 0.00 0.00 0.00 51 1012.0
20260905200022 20 355 1.6 0.0 0.00 0.00 0.00 53 1011.9
20260905194518 20 355 1.6 0.0 0.00 0.00 0.00 54 1011.9
20260905193014 20 12 1.6 0.0 0.00 0.00 0.00 54 1011.9
20260905191510 20 360 4.8 0.0 0.00 0.00 0.00 55 1011.8
20260905190007 21 16 3.2 0.0 0.00 0.00 0.00 54 1011.7
20260905184502 20 27 3.2 0.0 0.00 0.00 0.00 54 1011.5
20260905183059 20 46 3.2 0.0 0.00 0.00 0.00 54 1011.8
20260905181555 21 19 3.2 0.0 0.00 0.00 0.00 53 1011.8
20260905180100 21 24 3.2 0.0 0.00 0.00 0.00 53 1011.7
20260905174553 21 26 3.2 0.0 0.00 0.00 0.00 53 1011.7
20260905173057 20 27 1.6 0.0 0.00 0.00 0.00 53 1011.7
20260905171540 21 310 1.6 0.0 0.00 0.00 0.00 51 1011.8
20260905170035 20 39 3.2 0.0 0.00 0.00 0.00 51 1011.9
20260905164531 20 57 1.6 0.0 0.00 0.00 0.00 51 1012.0
20260905163026 20 346 3.2 0.0 0.00 0.00 0.00 50 1012.0
20260905161522 19 14 3.2 0.0 0.00 0.00 0.00 50 1012.0
20260905160021 19 15 0.0 0.0 0.00 0.00 0.00 48 1012.0
20260905154517 18 15 0.0 0.0 0.00 0.00 0.00 48 1012.0
20260905153012 18 15 1.6 0.0 0.00 0.00 0.00 46 1012.1
20260905151508 18 20 3.2 0.0 0.00 0.00 0.00 46 1012.3
20260905150003 18 355 14.5 0.0 0.00 0.00 0.00 46 1012.3
20260905144601 -17 0.0 0.0 0.00 0.00 0.00 1012.1
20260905143055 -17 0.0 0.0 0.00 0.00 0.00 1012.1
20260905141551 -17 0.0 0.0 0.00 0.00 0.00 1011.9
20260905140050 -17 0.0 0.0 0.00 0.00 0.00 1011.9
20260905134556 -17 0.0 0.0 0.00 0.00 0.00 1011.9
20260905133044 -17 0.0 0.0 0.00 0.00 0.00 1012.2
20260905131536 -17 0.0 0.0 0.00 0.00 0.00 1012.3
20260905130031 -17 0.0 0.0 0.00 0.00 0.00 1012.5
20260905124535 -17 0.0 0.0 0.00 0.00 0.00 1012.7
20260905123022 -17 0.0 0.0 0.00 0.00 0.00 1012.7
20260905121519 -17 0.0 0.0 0.00 0.00 0.00 1012.7
20260905120016 -17 0.0 0.0 0.00 0.00 0.00 1012.2
20260905114511 -17 0.0 0.0 0.00 0.00 0.00 1012.1
20260905113007 -17 0.0 0.0 0.00 0.00 0.00 1012.1
20260905111506 -17 0.0 0.0 0.00 0.00 0.00 1012.0
20260905110111 -17 0.0 0.0 0.00 0.00 0.00 1011.9
20260905104556 13 325 0.0 0.0 0.00 0.00 0.00 100 1011.8
20260905103052 13 325 0.0 0.0 0.00 0.00 0.00 100 1011.6
20260905101601 13 325 0.0 0.0 0.00 0.00 0.00 100 1011.4
20260905100043 13 325 0.0 0.0 0.00 0.00 0.00 100 1011.4
20260905094539 13 325 0.0 0.0 0.00 0.00 0.00 100 1011.4
20260905093035 13 325 0.0 0.0 0.00 0.00 0.00 100 1011.4
20260905091530 13 325 0.0 0.0 0.00 0.00 0.00 100 1011.4
20260905090031 13 325 0.0 0.0 0.00 0.00 0.00 100 1011.4
20260905084523 13 325 0.0 0.0 0.00 0.00 0.00 100 1011.4
20260905083021 13 325 0.0 0.0 0.00 0.00 0.00 100 1011.5
20260905081515 13 325 0.0 0.0 0.00 0.00 0.00 100 1011.6
20260905080014 13 325 0.0 0.0 0.00 0.00 0.00 100 1011.6
20260905074513 12 325 0.0 0.0 0.00 0.00 0.00 100 1011.7
20260905073005 12 325 0.0 0.0 0.00 0.00 0.00 100 1011.7
20260905071503 12 325 0.0 0.0 0.00 0.00 0.00 100 1011.8
20260905070111 12 325 0.0 0.0 0.00 0.00 0.00 100 1011.9
20260905064552 12 325 0.0 0.0 0.00 0.00 0.00 100 1012.0
20260905063056 12 325 0.0 0.0 0.00 0.00 0.00 100 1012.1
20260905061544 12 325 0.0 0.0 0.00 0.00 0.00 100 1012.1
20260905060040 12 325 0.0 0.0 0.00 0.00 0.00 100 1012.2
20260905054547 12 325 0.0 0.0 0.00 0.00 0.00 100 1012.3
20260905053032 12 325 0.0 0.0 0.00 0.00 0.00 100 1012.3
20260905051527 12 325 0.0 0.0 0.00 0.00 0.00 100 1012.4
20260905050026 12 325 0.0 0.0 0.00 0.00 0.00 100 1012.6
20260905044522 12 325 0.0 0.0 0.00 0.00 0.00 100 1012.7
20260905043021 12 325 0.0 0.0 0.00 0.00 0.00 100 1012.7
20260905041513 12 325 0.0 0.0 0.00 0.00 0.00 100 1012.7